Temp
34 31 30 30 29 28 26 24 23 24 23 22 24 25 25 25 25 25 25 24 24 24 23 25 25 25 25 25 25 26 26 27 25 27 28 27 26 26 26 26 27 27 26
34 33 30 30 29 28 27 25 25 23 23 24 24 25 26 26 26 26 25 24 24 24 24 24 25 26 26 25 24 25 26 28 27 27 28 29 28 28 28 27 28 27 27
34 34 32 31 30 29 27 26 25 25 24 25 24 24 23 24 24 23 25 24 24 24 24 24 24 25 24 26 25 25 25 28 28 25 27 27 26 30 28 27 28 28 27
34 35 34 32 30 29 28 26 25 24 24 24 25 24 25 25 27 26 26 26 25 24 24 24 24 24 26 26 25 26 25 25 28 27 28 26 27 29 29 29 29 28 28
32 34 35 33 31 30 29 27 25 25 25 24 25 24 23 25 25 27 26 24 25 24 24 24 24 24 24 25 25 25 24 26 27 28 28 27 28 28 30 24 30 29 29
32 32 33 33 32 31 28 28 26 24 24 24 23 24 25 25 27 27 26 24 25 26 24 24 24 24 24 24 25 24 24 25 26 27 27 28 28 28 30 30 30 30 30
31 33 32 32 31 30 29 27 26 25 24 24 24 24 24 25 25 25 25 26 27 27 26 25 24 24 24 24 24 23 24 24 25 25 27 28 28 28 28 29 30 30 29
30 30 31 31 30 30 29 27 27 25 25 24 24 24 24 25 25 25 26 26 26 26 26 26 24 24 23 23 24 23 23 24 25 24 25 26 28 28 28 28 29 30 30
28 28 28 27 29 29 28 27 27 25 25 25 24 24 24 24 26 26 26 25 26 26 26 25 24 24 24 23 23 23 24 23 23 24 25 25 27 27 27 27 28 28 29
27 27 27 26 26 28 28 27 26 26 26 26 25 25 25 24 24 25 25 25 26 25 24 24 24 24 24 23 23 23 23 23 23 25 25 25 26 27 27 27 28 28 28
27 27 26 25 24 25 26 26 26 25 25 25 26 25 26 25 24 24 24 24 24 24 23 23 24 24 24 23 23 23 24 23 23 24 24 25 24 25 26 27 27 28 28
27 27 26 25 23 22 21 22 23 24 24 24 25 25 25 25 26 25 24 24 24 24 24 23 23 23 23 23 23 23 24 23 22 23 23 22 23 23 23 25 26 26 27
26 26 26 24 24 22 20 20 20 20 21 20 20 21 23 24 24 25 24 24 24 24 24 24 24 23 24 24 23 23 23 23 23 23 22 22 22 21 23 23 25 25 25
26 25 25 24 23 22 22 21 21 20 21 21 20 21 21 21 22 22 22 23 23 23 24 24 24 24 24 24 24 24 23 23 23 21 22 22 21 21 22 23 23 23 23
25 25 24 23 23 22 21 21 22 22 22 21 22 20 21 21 20 20 20 20 21 21 22 23 23 23 23 24 24 24 24 24 24 23 23 22 21 21 23 23 23 24 23
24 24 23 22 22 21 21 21 21 21 21 21 22 21 20 20 20 20 20 19 19 20 21 22 23 23 23 24 24 24 25 24 24 24 24 23 23 22 22 22 23 24 23
23 23 22 21 20 20 20 20 20 20 21 21 21 21 21 20 20 20 20 20 20 20 21 21 22 23 23 23 23 23 24 25 25 24 24 24 25 24 23 22 22 23 23
22 21 20 20 20 19 19 19 19 19 20 21 21 21 21 21 21 21 20 20 20 20 21 21 22 22 23 23 23 22 22 23 25 24 24 24 25 25 24 24 23 23 23
21 20 19 19 19 18 19 18 18 19 19 20 20 20 20 21 21 21 22 21 21 22 21 21 22 22 22 23 22 22 21 23 24 24 24 24 24 24 24 23 24 24 24
19 18 18 17 18 17 17 17 18 18 19 19 19 18 19 19 21 21 21 22 21 20 21 22 22 22 22 23 22 22 22 24 24 24 24 24 24 24 23 23 24 24 25
17 17 17 17 16 15 15 15 16 18 18 17 17 17 18 19 19 20 21 21 21 21 21 21 21 21 22 23 23 22 21 24 25 25 26 25 24 23 23 23 23 24 25
17 16 16 16 15 14 14 14 14 15 14 15 16 17 17 18 20 20 20 22 21 21 21 22 21 22 21 21 22 22 21 22 24 26 26 26 25 24 22 22 22 22 22
15 14 14 14 14 13 13 13 13 12 12 13 14 16 17 18 19 19 20 22 22 21 22 24 23 23 23 19 20 20 21 20 20 23 24 24 24 23 22 21 21 21 21
14 14 13 13 12 12 12 11 11 11 12 12 13 15 17 18 19 20 22 24 22 22 21 22 23 22 22 21 18 17 17 18 17 20 21 20 20 21 22 21 20 20 22
14 13 12 11 11 11 10 10 10 11 12 13 14 16 18 19 20 19 21 23 23 22 21 21 21 22 21 20 19 18 17 17 17 18 18 18 20 21 22 22 22 22 22
13 12 11 10 10 10 10 10 10 10 10 11 13 16 16 18 19 19 20 22 21 20 20 20 18 18 19 18 17 16 17 17 18 16 17 18 19 21 22 23 24 22 21
Height
787 795 801 806 810 816 821 825 829 833 837 839 841 842 843 844 846 847 849 851 852 853 854 854 854 853 853 853 854 852 851 849 850 848 845 846 846 847 847 847 848 849 850
781 787 795 800 805 810 815 821 825 829 832 836 838 840 841 841 843 845 846 848 850 851 851 851 851 851 851 851 852 851 849 847 847 846 842 838 844 843 844 845 845 847 848
776 778 787 794 799 805 810 814 819 823 826 831 835 839 840 841 842 844 844 845 846 848 848 848 849 849 850 848 849 849 849 845 845 846 846 843 844 835 840 843 843 844 845
771 773 777 787 793 799 805 809 814 817 821 825 829 832 834 838 837 839 840 841 843 844 845 846 847 848 847 847 848 848 848 848 844 845 843 846 844 836 838 836 838 841 841
775 770 772 778 787 793 799 804 809 813 816 819 822 826 830 833 835 834 835 837 839 840 841 843 844 845 846 846 847 847 847 846 845 843 842 843 842 842 836 842 834 837 838
773 774 773 777 782 789 795 799 803 807 812 815 818 820 822 825 826 828 830 833 834 834 836 839 840 842 843 844 846 847 847 846 845 844 844 841 841 840 835 834 833 833 833
781 774 776 779 783 787 793 799 802 806 808 810 812 815 818 821 823 825 827 828 827 828 830 834 836 837 839 840 841 844 845 845 845 845 843 841 841 839 838 836 832 833 833
789 788 783 783 785 787 790 794 798 802 804 807 809 811 813 815 815 817 819 822 824 826 826 829 831 834 835 837 837 838 840 841 841 843 843 841 839 838 837 836 834 833 830
797 796 794 792 787 788 790 793 796 799 801 803 806 807 809 811 810 812 813 814 816 819 823 825 827 829 830 832 832 834 834 835 837 838 839 840 837 835 835 835 836 836 833
804 802 800 798 795 790 790 793 795 797 799 800 802 803 804 806 808 809 809 810 811 814 814 816 820 824 824 824 826 826 828 831 832 832 832 833 832 832 833 833 832 832 833
808 808 806 804 803 799 796 795 796 797 798 798 798 799 799 799 800 802 804 805 806 807 808 810 811 812 816 817 819 822 822 823 824 826 826 827 829 830 828 829 829 829 829
812 811 809 808 807 807 805 803 801 800 798 798 798 798 798 797 795 792 793 796 799 799 801 802 804 806 807 809 810 812 814 816 816 817 820 822 824 826 827 827 828 827 827
815 814 812 812 811 811 810 808 807 805 802 801 798 796 797 796 794 793 791 792 792 792 792 794 795 798 800 802 804 804 805 807 809 811 811 812 815 819 822 823 823 824 825
816 816 815 816 815 814 811 809 806 804 802 800 798 798 797 795 794 793 789 789 789 789 786 786 787 789 792 794 794 796 797 798 800 802 803 805 807 810 814 817 818 820 822
816 817 817 817 816 814 812 809 806 802 800 799 797 796 796 795 792 790 787 786 785 786 784 781 781 782 783 785 786 788 790 791 793 796 797 797 798 800 806 808 809 812 815
816 817 817 817 815 814 811 809 806 803 800 797 795 794 793 791 788 785 782 782 780 778 776 775 775 775 775 777 779 781 781 784 785 786 788 790 791 794 795 798 802 805 808
817 818 817 816 814 812 810 806 803 801 798 795 792 790 789 787 785 781 780 778 775 773 770 767 767 767 766 767 771 773 774 775 778 781 782 782 781 783 787 791 796 799 801
819 817 815 813 811 809 807 804 801 798 795 792 789 786 784 782 781 779 777 773 771 768 765 762 760 760 758 759 760 764 768 768 768 772 775 776 775 776 780 784 787 792 794
817 815 814 811 808 806 803 800 797 795 792 788 786 784 781 778 776 773 771 768 765 761 759 756 754 753 751 751 753 756 761 761 762 762 766 768 769 771 774 779 779 781 785
816 815 813 810 806 804 801 798 794 791 788 785 783 781 778 774 771 769 766 763 760 757 754 750 746 745 742 742 743 747 751 751 755 757 757 759 764 766 768 772 773 773 776
817 813 809 806 805 804 801 797 793 788 785 783 780 776 772 769 766 763 760 757 755 752 749 745 740 737 736 734 735 737 742 741 742 747 748 751 753 760 762 763 767 768 770
812 811 808 806 804 802 799 795 792 788 784 780 775 771 768 764 760 757 754 751 748 746 743 739 737 732 731 727 727 729 732 736 736 736 739 741 745 750 755 758 760 764 765
813 811 808 804 802 799 796 792 788 784 780 775 771 765 762 759 756 754 751 747 744 741 739 733 732 728 724 722 722 721 722 725 728 731 733 734 738 744 747 751 753 757 760
811 808 806 802 799 795 792 788 783 779 774 770 766 760 755 752 750 748 744 739 739 736 736 731 729 723 722 722 720 719 717 717 722 722 725 729 733 737 741 745 746 750 753
808 806 803 800 797 793 788 784 779 774 769 765 760 754 749 745 743 742 740 736 734 733 733 729 726 722 713 717 717 716 716 716 719 720 720 723 731 733 735 738 741 743 746
806 804 801 798 794 790 785 780 776 771 766 761 756 750 745 741 740 738 736 733 731 729 727 725 722 721 712 712 714 716 716 716 716 721 715 719 721 724 728 730 733 735 738
Wind_Speed
14 17 18 19 19 19 20 19 21 19 17 16 15 14 13 12 12 12 12 12 11 11 10 9 8 7 7 6 6 4 3 3 4 4 4 4 7 9 8 9 9 7 8
13 16 20 22 22 22 22 21 21 20 22 17 17 16 14 13 14 13 12 13 12 13 12 11 10 10 9 7 7 3 6 4 2 4 7 3 5 8 9 9 9 8 8
12 15 18 22 23 23 24 25 24 23 23 21 15 15 13 13 11 12 13 14 14 14 14 15 13 11 11 10 7 6 6 7 2 2 3 4 2 4 7 8 9 8 9
6 13 17 20 22 23 24 25 24 25 24 22 19 20 18 15 15 14 13 13 15 16 15 14 14 12 12 11 9 8 7 6 6 2 3 3 5 3 2 9 7 8 9
6 7 14 17 20 20 22 23 24 25 25 25 25 22 20 19 16 15 14 14 15 16 17 16 15 14 14 13 12 9 8 8 8 5 6 3 4 3 6 2 9 8 5
14 1 8 11 15 17 19 20 23 26 25 25 24 25 21 22 18 18 16 15 17 18 18 18 17 16 15 14 14 13 12 11 9 8 6 9 5 5 6 4 5 6 3
18 13 4 3 8 11 14 15 18 21 24 26 26 25 24 22 22 21 18 18 17 17 17 16 18 17 18 18 16 14 14 12 12 10 12 10 9 10 10 9 9 6 6
18 17 15 7 1 5 11 15 16 18 21 24 26 25 25 24 24 23 21 21 20 19 17 16 18 17 18 17 18 19 18 17 16 14 12 13 12 11 11 12 11 5 10
18 17 18 18 9 2 4 9 12 14 18 21 21 22 23 24 24 23 21 22 22 21 18 18 18 17 19 19 21 21 20 19 17 16 16 15 15 14 13 11 13 10 8
18 17 19 19 17 11 2 3 7 11 13 16 18 19 20 22 23 23 22 22 21 20 21 21 20 18 20 21 22 21 21 20 18 20 20 18 17 15 15 15 15 14 14
15 15 18 20 19 16 10 3 3 6 9 12 15 17 19 21 22 22 23 23 20 20 22 22 24 26 23 21 22 24 23 22 22 22 20 20 18 17 15 15 16 16 16
12 12 16 18 18 15 16 15 11 9 8 6 11 17 18 20 21 22 22 21 22 20 21 21 22 22 24 24 24 25 25 25 26 26 23 21 19 19 18 17 17 18 14
10 10 12 14 15 13 13 13 14 16 14 12 11 10 13 13 15 16 16 18 19 20 19 21 23 23 24 25 25 26 26 27 27 29 27 29 23 21 21 21 21 18 17
8 9 10 12 13 14 14 12 12 10 12 10 11 11 10 11 14 16 13 15 15 18 19 20 23 24 25 26 26 26 27 27 28 30 29 26 27 28 22 22 21 20 16
9 10 11 13 13 13 14 15 14 14 13 9 8 12 17 18 16 15 17 20 20 22 22 19 21 23 25 28 29 29 28 28 29 28 26 25 24 27 26 24 23 20 19
10 12 13 15 16 16 16 16 16 16 14 12 11 10 10 10 11 12 14 18 22 21 21 22 24 23 25 28 31 31 28 29 29 28 28 26 24 27 30 31 28 25 24
12 14 14 16 17 19 18 18 19 18 16 14 13 11 10 11 12 12 13 16 18 18 22 23 23 27 25 29 33 36 34 28 28 28 28 26 25 26 25 31 32 31 29
14 15 18 19 20 20 21 20 19 18 17 15 13 11 12 13 13 13 15 15 15 16 19 23 25 27 29 31 33 37 35 32 29 28 28 28 25 23 24 25 24 28 28
17 18 20 22 23 23 20 19 21 20 17 17 15 14 13 14 14 14 16 15 16 17 17 19 23 27 30 32 35 34 32 32 32 29 28 28 27 24 26 24 24 25 25
18 20 20 21 20 21 22 21 20 22 21 19 17 18 16 15 16 15 16 17 17 18 17 19 20 24 29 31 34 33 31 32 32 30 27 28 28 25 26 26 25 24 24
18 20 20 18 17 18 19 19 21 22 23 23 22 23 21 18 18 17 15 16 17 18 17 19 22 23 25 28 33 32 32 34 31 31 28 26 28 32 27 30 26 26 22
17 17 18 19 19 18 16 18 22 24 25 25 25 24 23 22 19 19 17 16 17 17 17 16 19 20 21 21 28 30 33 34 31 29 30 22 25 26 33 30 28 26 23
17 18 18 20 19 18 17 19 22 24 25 24 26 26 24 23 21 19 17 16 14 17 16 16 14 15 15 16 20 28 31 30 39 30 26 23 20 21 22 27 29 28 22
15 16 18 18 20 20 20 19 23 25 23 23 24 24 24 23 21 18 21 15 12 13 14 14 16 9 12 14 10 13 11 18 26 22 25 18 15 14 15 14 19 21 20
15 16 17 19 20 20 20 21 23 23 22 21 21 22 21 22 20 19 20 18 14 13 14 15 12 12 7 11 15 15 12 13 17 20 18 16 14 15 14 14 15 16 18
16 17 18 18 19 19 20 21 21 22 22 20 18 19 20 18 17 16 18 19 17 17 17 16 13 15 10 10 9 15 17 20 25 14 13 18 16 13 15 18 19 18 19
Wind_Direction
199 203 207 205 203 203 202 202 201 200 201 205 208 210 214 211 215 218 218 221 230 238 237 245 258 266 265 279 292 294 289 309 324 309 206 199 214 209 215 212 212 222 226
209 198 207 207 207 203 205 207 206 203 201 209 211 217 222 223 222 222 224 228 232 232 234 237 252 262 258 254 262 281 300 280 343 322 262 203 171 215 217 213 220 220 218
252 205 203 207 207 210 208 207 206 205 204 205 205 209 223 233 236 234 228 231 230 231 236 244 245 253 246 249 245 248 258 293 295 342 312 347 279 175 176 200 208 209 220
242 229 204 208 210 209 211 212 210 206 206 201 205 208 216 219 229 231 236 234 235 237 234 235 239 240 248 248 251 250 256 250 271 271 224 295 301 332 135 175 191 211 219
359 274 220 211 214 207 210 211 210 210 209 205 205 210 212 221 236 232 235 227 236 242 238 236 236 238 243 248 251 256 243 246 265 241 254 218 261 237 292 308 170 197 209
15 8 251 215 217 210 209 208 206 209 209 208 210 212 216 217 223 224 234 231 240 239 235 237 240 242 243 247 250 253 253 251 253 261 265 265 237 255 249 251 297 292 204
29 39 87 186 226 211 208 214 213 214 211 210 210 215 219 219 222 228 230 241 244 238 236 235 239 243 240 241 244 247 250 247 250 246 260 258 265 268 277 288 265 250 288
33 34 26 42 13 228 211 214 212 215 214 216 218 217 220 225 227 227 229 238 239 250 245 247 243 248 255 250 246 240 243 248 242 245 249 265 267 262 257 264 282 298 268
31 31 34 21 17 358 228 223 219 218 221 218 221 224 224 227 233 236 234 233 237 245 255 248 248 247 253 253 245 244 243 240 238 240 245 251 257 251 252 252 256 243 275
34 30 28 29 21 11 14 253 228 229 229 227 224 225 227 232 238 241 240 242 246 243 241 233 245 244 249 250 248 240 243 241 241 241 244 241 246 245 246 250 250 247 262
35 35 30 27 25 23 20 9 278 235 233 232 230 230 227 227 230 235 242 243 243 240 246 254 242 239 242 244 244 245 246 236 237 238 246 236 234 246 250 244 252 252 250
28 26 28 28 28 24 18 20 23 14 346 296 249 244 242 240 235 226 230 237 241 236 244 248 251 246 241 240 237 237 242 237 234 233 231 232 236 235 240 248 245 251 260
24 24 25 24 18 21 9 351 330 319 314 314 324 317 264 248 255 257 255 251 244 242 239 243 245 247 242 238 240 236 236 233 234 234 225 231 226 232 236 236 247 240 242
17 17 14 14 6 2 354 342 331 324 325 291 274 281 292 312 309 304 303 292 273 261 249 245 246 244 245 239 235 236 234 233 236 234 232 239 230 231 227 231 235 243 247
354 356 350 346 343 344 341 340 334 329 328 316 275 253 251 273 278 277 276 272 269 272 271 262 257 252 248 244 238 234 236 234 235 238 237 235 231 222 225 228 225 229 226
332 333 330 325 324 326 323 323 323 326 316 307 302 285 269 269 272 279 280 266 266 264 261 259 259 253 249 251 246 236 234 237 238 236 237 234 232 227 227 228 227 229 228
328 326 323 319 316 313 312 308 310 314 314 304 299 296 290 284 282 282 276 269 270 268 265 263 258 257 251 249 249 242 231 235 239 242 239 234 231 227 228 232 232 231 229
322 319 315 311 306 306 304 305 303 300 302 304 299 297 293 285 283 279 272 277 281 279 270 264 263 261 256 253 248 246 236 234 233 235 239 234 233 224 220 222 222 229 234
315 314 314 311 311 302 297 298 299 298 292 292 296 303 305 295 288 284 282 277 283 289 287 273 266 263 260 254 251 247 236 235 233 230 235 234 233 228 220 220 220 225 231
321 317 314 307 310 318 314 307 297 297 295 294 295 298 299 296 289 286 286 281 278 277 276 288 279 271 265 259 252 247 234 232 232 230 231 233 237 233 222 218 223 226 231
312 313 315 309 313 313 315 309 296 294 298 295 292 293 293 292 286 285 286 283 280 284 287 289 284 280 277 259 250 247 238 232 227 231 225 231 230 228 227 224 227 231 237
323 322 321 316 316 317 313 306 304 307 310 296 289 284 286 287 286 283 284 278 277 278 286 292 290 284 280 276 255 246 241 235 243 224 225 223 226 229 229 228 230 233 236
328 324 319 314 311 312 312 305 299 299 296 294 287 283 281 280 279 276 275 278 278 281 285 294 290 295 291 287 276 249 239 242 235 230 222 218 220 214 224 233 234 238 238
329 324 322 322 319 314 315 310 308 304 294 285 288 282 277 275 273 273 269 269 266 276 286 281 288 310 314 286 261 259 256 243 226 211 205 207 204 208 214 221 227 231 233
334 330 328 323 319 321 316 317 316 319 302 292 290 282 272 269 268 266 262 277 272 274 283 278 284 298 339 311 274 246 223 204 209 192 178 169 185 194 205 219 220 219 224
333 333 329 326 322 322 323 323 322 326 322 312 292 296 298 286 271 272 267 267 267 274 280 272 275 291 323 309 285 236 238 210 182 217 178 178 185 207 228 231 230 223 224